Home > Weather > Aurangabad > Past weeks

Flag for India Weather for the Past 2 Weeks in Aurangabad, Maharashtra, India

Now
86 °F

Clear.


Feels Like: 86 °F
Forecast: 65 / 92 °F
Wind: 9 mph from West

Location: Mumbai / Santacruz

Current Time: Feb 9, 2016 at 3:34:09 PM

Latest Report: Feb 9, 2016 at 2:30 PM


Visibility: 2 mi

Pressure: 29.86 "Hg

Humidity: 43%

Dew point: 61 °F

Location of AurangabadLocation

Historic Weather in Aurangabad — Graph

°F

Aurangabad Temperature Yesterday

Maximum temperature yesterday: 84 °F (at 2:00 PM)
Minimum temperature yesterday: 68 °F (at 4:00 AM)
Average temperature yesterday: 76 °F

High & Low Weather Summary for the Past Weeks

 TemperatureHumidityPressure
High91 °F (Jan 28, 4:00 PM)88% (Jan 27, 3:30 AM)30.04 "Hg (Jan 27, 3:30 AM)
Low66 °F (Jan 26, 7:30 AM)23% (Jan 26, 11:30 AM)29.80 "Hg (Feb 6, 4:30 AM)
Average78 °F56%29.93 "Hg
* Reported Jan 25 2:30 PM — Feb 9 2:30 PM, Aurangabad, Weather by CustomWeather, © 2016

Note: Actual official high and low records may vary slightly from our data, if they occured in-between our weather recording intervals... More about our weather records

Advertising

Aurangabad Weather History for the Previous 24 Hours

 ConditionsComfort  
Time TempWeatherWind HumidityBarometerVisibility
2:30 PM
Tue, Feb 9
86 °FClear.9 mph43%29.86 "Hg2 mi
1:30 PM86 °FClear.12 mph52%29.89 "Hg2 mi
1:00 PM84 °FHaze.12 mph55%29.89 "Hg2 mi
12:00 PM82 °FHaze.8 mph62%29.92 "Hg2 mi
11:30 AM82 °FHaze.9 mph62%29.95 "Hg2 mi
11:00 AM84 °FClear.6 mph58%29.95 "Hg1 mi
10:00 AM81 °FClear.3 mph54%29.95 "Hg1 mi
9:00 AM75 °FHaze.3 mph74%29.95 "Hg1 mi
8:30 AM73 °FHaze.5 mph74%29.92 "Hg1 mi
8:00 AM72 °FHaze.No wind73%29.92 "Hg1 mi
7:30 AM72 °FHaze.5 mph73%29.89 "Hg1 mi
7:00 AM72 °FHaze.3 mph78%29.89 "Hg1 mi
6:30 AM73 °FHaze.3 mph74%29.89 "Hg1 mi
6:00 AM73 °FHaze.No wind78%29.89 "Hg1 mi
5:30 AM72 °FHaze.5 mph83%29.89 "Hg1 mi
5:00 AM72 °FHaze.No wind83%29.86 "Hg1 mi
4:30 AM73 °FHaze.No wind78%29.86 "Hg1 mi
4:00 AM73 °FHaze.3 mph78%29.86 "Hg1 mi
3:30 AM73 °FHaze.3 mph78%29.89 "Hg1 mi
3:00 AM73 °FHaze.No wind78%29.89 "Hg1 mi
2:30 AM73 °FHaze.No wind78%29.89 "Hg1 mi
2:00 AM73 °FHaze.No wind78%29.89 "Hg1 mi
1:30 AM73 °FHaze.No wind78%29.92 "Hg1 mi
1:00 AM75 °FHaze.No wind69%29.92 "Hg1 mi
12:30 AM75 °FHaze.3 mph69%29.92 "Hg1 mi
12:00 AM75 °FHaze.3 mph69%29.92 "Hg1 mi
11:30 PM
Mon, Feb 8
75 °FHaze.3 mph69%29.92 "Hg2 mi
11:00 PM75 °FHaze.3 mph69%29.92 "Hg2 mi
10:30 PM77 °FHaze.5 mph65%29.92 "Hg2 mi
10:00 PM77 °FHaze.3 mph61%29.92 "Hg2 mi
9:30 PM79 °FHaze.5 mph58%29.92 "Hg2 mi
9:00 PM77 °FHaze.5 mph61%29.92 "Hg2 mi
8:30 PM77 °FHaze.6 mph65%29.89 "Hg2 mi
8:00 PM79 °FHaze.6 mph65%29.89 "Hg2 mi
7:30 PM79 °FHaze.7 mph65%29.89 "Hg2 mi
7:00 PM79 °FHaze.7 mph65%29.89 "Hg2 mi
6:30 PM79 °FHaze.8 mph65%29.86 "Hg3 mi
6:00 PM81 °FHaze.9 mph62%29.86 "Hg3 mi
5:30 PM81 °FClear.12 mph58%29.86 "Hg4 mi
5:00 PM82 °FClear.10 mph55%29.86 "Hg4 mi
4:30 PM82 °FClear.9 mph55%29.86 "Hg5 mi
3:30 PM84 °FSunny.12 mph48%29.86 "Hg10 mi
3:00 PM84 °FClear.7 mph48%29.86 "Hg5 mi
Weather by CustomWeather, © 2016

See weather overviewHow to use our weather pages